Wind_Speed
9 10 10 10 10 10 10 9 8 8 8 8 8 8 8 8 8 8 8 8 8 8 8 8 7 7 6 7 8 7 8 8 8 7 8 8 8 8 8 8 9 9 9
9 10 10 10 10 10 9 9 8 8 8 8 8 7 8 8 8 9 8 8 8 8 8 8 7 7 7 8 8 8 8 8 8 8 8 8 8 8 9 9 9 9 10
9 9 9 9 10 10 9 9 8 8 8 8 8 7 8 8 8 8 8 8 8 8 8 8 8 8 8 8 8 8 8 8 9 9 9 9 9 9 9 10 10 10 10
9 9 9 9 9 9 9 9 8 8 8 8 7 8 8 8 8 8 8 8 8 8 9 8 8 8 9 9 8 9 10 10 10 10 11 11 11 11 11 11 11 11 12
8 8 9 9 9 9 9 9 9 9 8 8 7 8 8 8 8 8 8 8 9 9 9 9 9 10 10 10 10 10 11 11 11 11 12 12 12 12 12 12 12 12 12
9 8 8 9 9 9 9 9 9 9 9 8 8 8 8 8 9 9 8 9 9 10 10 10 11 11 11 11 11 11 12 12 12 12 12 13 13 13 14 13 14 14 13
10 9 8 8 9 10 10 10 10 10 10 9 9 9 9 10 10 9 9 9 9 11 11 11 12 12 12 12 12 12 13 13 13 13 13 13 14 14 15 15 15 15 15
11 11 10 9 9 10 10 10 10 10 10 10 10 10 11 11 10 11 10 10 10 11 11 12 13 13 14 13 13 14 13 14 14 14 14 14 15 15 15 16 16 17 17
12 11 11 11 11 11 10 10 10 10 11 11 11 11 11 11 11 11 11 11 11 11 12 13 13 14 14 15 15 15 14 15 15 15 15 16 16 16 16 17 17 18 18
12 13 13 11 11 12 12 12 12 11 11 12 12 12 12 12 12 12 12 12 12 12 13 14 15 15 15 15 15 15 16 16 16 16 16 16 16 16 17 17 18 19 19
13 14 13 11 11 12 13 13 13 13 14 13 13 13 13 13 12 13 14 14 14 14 14 14 15 16 16 16 16 16 16 17 17 17 17 17 17 17 18 19 19 20 20
13 15 15 14 13 14 14 14 15 16 16 15 15 14 14 14 14 15 15 16 16 16 16 16 17 17 18 17 17 17 17 18 18 18 18 18 19 19 19 20 20 21 21
16 15 15 14 15 15 15 16 17 18 18 18 18 16 16 16 17 17 17 17 17 18 18 19 19 19 19 19 19 18 18 18 19 19 20 20 20 20 20 21 21 21 22
16 16 16 16 16 17 17 17 18 19 20 20 20 19 19 19 19 19 19 19 19 20 20 21 21 21 20 20 21 20 20 20 20 20 21 21 22 22 22 22 22 23 23
17 17 17 17 18 18 19 19 19 20 20 21 21 21 21 21 21 21 21 22 22 23 23 23 23 23 22 22 22 22 22 21 21 22 22 22 22 23 23 23 24 24 24
19 18 19 19 19 19 20 21 21 21 21 21 22 22 22 22 22 22 22 23 24 25 25 25 24 23 23 23 23 23 23 23 23 23 23 23 23 24 23 24 24 24 24
21 20 21 22 22 22 22 22 22 23 23 22 23 23 23 24 24 23 24 25 25 25 25 25 25 25 25 25 25 24 24 24 24 24 24 24 24 24 24 24 24 24 24
23 22 23 23 23 23 23 23 24 24 24 24 24 25 25 24 25 25 26 26 27 27 27 26 26 26 26 26 26 26 26 26 25 25 25 25 25 25 25 25 25 25 25
25 25 24 25 25 25 25 26 26 26 26 26 26 26 26 27 27 27 27 28 28 28 28 28 28 28 27 27 27 28 27 27 26 26 27 27 27 27 27 27 26 26 26
27 27 27 27 27 28 28 28 28 28 28 27 28 28 28 28 29 29 29 29 30 30 30 30 30 29 28 28 28 29 29 28 28 27 28 28 29 29 29 28 28 27 27
29 29 29 29 29 29 29 29 29 30 30 29 29 29 29 30 30 31 31 31 31 31 31 31 30 29 28 28 28 29 29 29 29 29 29 29 29 29 29 29 28 28 27
30 30 30 30 30 30 30 30 30 31 31 30 30 31 32 32 32 32 33 33 33 33 32 32 31 29 29 29 29 29 29 30 30 30 30 30 29 29 29 28 28 28 28
31 30 30 30 30 30 31 32 32 32 32 32 32 32 32 33 34 34 34 34 34 34 34 32 31 30 29 29 29 30 30 30 30 30 30 29 29 28 28 28 28 28 28
31 31 31 31 31 32 32 32 33 33 33 33 33 33 33 33 34 35 35 35 36 35 35 33 32 32 30 29 30 31 31 31 31 31 30 29 28 28 28 28 27 27 27
32 32 32 32 32 32 33 33 33 34 35 35 34 34 34 34 35 35 35 36 35 34 33 32 33 31 31 31 31 31 31 32 32 31 30 29 29 29 28 28 28 27 27
33 33 33 33 32 33 33 34 33 33 33 33 33 33 34 34 35 35 35 35 35 34 35 35 33 33 33 32 32 32 32 32 32 30 29 29 29 29 29 28 28 28 28
Wind_Direction
8 11 13 17 20 23 24 26 27 27 30 30 30 29 27 25 25 30 31 29 26 24 23 18 16 12 7 1 356 349 348 347 344 343 342 337 334 330 328 324 320 316 315
3 7 10 10 12 15 17 18 18 20 21 20 19 21 21 20 19 19 20 23 22 19 16 15 7 5 1 356 351 346 345 345 342 341 338 334 331 330 328 324 319 316 314
358 358 0 2 4 7 8 10 11 12 16 14 15 12 12 11 13 13 15 15 14 10 5 3 360 358 356 353 349 345 343 338 334 333 334 330 329 327 323 320 319 317 314
352 351 351 355 357 357 358 359 359 0 2 5 8 8 3 3 3 4 4 4 4 0 0 356 354 353 351 350 349 344 337 333 331 328 326 325 326 324 321 319 317 314 313
343 344 346 348 350 351 352 354 353 351 350 351 354 355 352 352 353 352 352 352 353 352 351 352 352 348 347 347 343 338 334 332 329 326 325 323 322 320 319 318 317 315 313
325 330 335 338 340 344 345 344 345 344 343 342 342 343 342 342 339 340 348 350 349 346 345 343 342 339 339 339 337 334 333 331 327 325 323 321 319 318 317 316 315 314 313
312 317 320 326 329 332 338 338 337 336 335 336 335 332 332 332 331 334 339 343 342 341 339 339 336 334 333 333 332 331 329 327 324 322 321 320 318 317 315 314 314 314 313
303 303 309 312 315 320 327 328 327 327 328 330 327 324 326 328 327 329 332 336 338 337 336 336 335 333 332 331 329 328 326 325 322 319 317 317 316 315 314 312 312 311 310
296 297 299 303 306 311 314 318 319 320 322 323 321 320 323 325 325 326 327 331 333 332 334 331 331 330 330 330 328 327 323 324 323 320 318 317 316 315 313 311 311 311 311
294 296 291 296 303 304 306 310 313 315 319 319 318 313 313 315 317 320 325 327 329 328 326 326 327 327 328 329 328 326 323 323 321 321 318 316 315 315 313 312 311 311 310
291 298 296 297 305 302 301 304 309 309 308 309 312 312 311 312 313 315 317 319 322 324 322 322 323 325 325 324 322 321 321 320 318 318 317 316 314 315 314 314 313 312 310
285 289 294 295 299 299 301 304 305 307 306 306 306 304 306 307 308 309 311 314 315 317 318 319 320 321 322 320 319 318 317 317 317 315 315 315 314 313 312 313 314 312 310
280 283 288 291 293 295 298 300 300 301 301 300 299 297 299 302 303 305 305 308 311 312 314 316 316 317 318 318 317 317 315 315 315 313 312 311 310 310 310 311 311 310 309
281 281 284 287 287 289 293 296 296 297 296 295 295 294 297 300 302 303 302 303 306 308 311 313 313 314 315 316 317 316 314 313 313 312 312 311 309 309 308 309 309 309 309
284 283 283 284 283 283 285 288 290 293 294 295 294 293 294 294 297 298 300 301 304 306 308 309 311 312 313 313 314 314 313 312 312 310 309 311 310 310 309 310 311 310 309
283 285 287 286 285 285 287 288 289 292 294 296 296 295 294 294 296 297 298 300 301 303 305 306 307 309 310 309 309 311 311 309 309 310 310 310 310 311 310 311 310 309 309
283 282 284 286 286 285 287 287 288 289 292 294 294 293 293 294 295 297 299 299 300 302 302 304 306 306 305 305 306 306 307 306 305 306 307 306 307 308 309 309 309 308 308
279 279 281 283 284 286 287 287 289 289 289 289 290 292 293 294 294 294 297 298 300 301 301 301 303 304 304 303 302 303 303 304 305 305 305 305 304 305 305 305 306 305 306
280 281 281 282 285 285 285 285 286 287 288 286 287 288 290 291 291 292 294 295 297 298 300 301 300 300 300 301 300 300 301 301 302 302 303 303 303 302 302 301 302 303 303
278 280 282 282 283 284 284 283 283 283 284 284 284 284 287 289 289 290 291 293 295 296 297 299 299 299 299 299 299 298 298 300 301 301 301 302 302 300 299 299 299 300 301
279 279 280 282 282 282 282 281 280 281 282 282 283 283 284 285 286 287 288 289 291 293 294 296 297 298 299 299 299 299 299 299 300 300 301 301 301 300 299 298 298 299 300
278 279 280 280 281 281 281 282 280 280 281 281 281 282 282 283 284 285 286 287 289 290 292 293 295 295 295 296 298 299 299 299 299 299 300 300 300 300 299 299 298 299 300
277 278 279 280 280 280 281 282 281 280 279 280 281 280 281 281 282 284 286 287 288 290 290 290 292 293 292 295 296 297 298 298 298 298 299 299 299 299 299 298 299 300 300
277 278 279 280 280 280 281 282 282 281 280 278 279 281 282 283 283 283 284 287 287 289 290 290 292 294 295 294 295 295 296 298 298 297 297 297 298 298 297 297 298 299 298
277 278 279 280 279 279 280 281 281 280 279 278 279 281 282 282 281 283 284 285 286 287 289 290 290 292 294 294 293 294 296 296 296 296 294 295 296 297 297 296 296 298 299
277 278 279 279 279 279 279 280 281 280 279 278 279 280 282 283 283 284 284 285 285 286 288 289 290 291 292 293 292 293 293 294 295 294 293 294 295 296 296 295 295 296 297
Height
5910 5909 5907 5906 5905 5904 5903 5902 5901 5899 5898 5897 5897 5896 5895 5894 5893 5892 5891 5890 5889 5889 5888 5887 5887 5886 5885 5885 5884 5883 5882 5881 5880 5879 5879 5878 5877 5876 5875 5874 5874 5873 5872
5911 5910 5908 5907 5906 5905 5904 5903 5902 5901 5900 5899 5898 5897 5896 5895 5894 5893 5892 5891 5890 5890 5889 5888 5887 5886 5885 5884 5883 5882 5881 5881 5880 5879 5878 5877 5877 5875 5874 5873 5872 5871 5870
5911 5910 5909 5908 5907 5906 5904 5904 5903 5902 5901 5900 5899 5898 5897 5896 5895 5894 5893 5892 5891 5890 5889 5888 5887 5886 5885 5884 5883 5882 5881 5880 5879 5878 5877 5876 5875 5874 5873 5871 5870 5869 5868
5912 5911 5910 5908 5907 5906 5905 5904 5903 5903 5902 5901 5900 5899 5898 5897 5896 5895 5894 5893 5892 5890 5889 5888 5887 5886 5885 5884 5883 5882 5880 5879 5878 5876 5875 5874 5873 5872 5871 5870 5868 5866 5865
5912 5911 5910 5909 5908 5907 5906 5904 5904 5903 5902 5901 5900 5900 5899 5897 5896 5895 5894 5893 5892 5891 5889 5888 5887 5886 5884 5883 5882 5881 5879 5878 5876 5875 5873 5872 5871 5869 5868 5867 5866 5864 5863
5911 5910 5909 5909 5908 5907 5906 5905 5904 5903 5902 5901 5900 5900 5899 5898 5897 5895 5894 5893 5891 5890 5889 5887 5886 5885 5884 5882 5881 5879 5878 5876 5874 5873 5871 5870 5869 5867 5866 5864 5863 5861 5860
5910 5909 5909 5908 5907 5906 5905 5904 5904 5903 5902 5901 5900 5900 5899 5898 5896 5895 5894 5892 5891 5890 5888 5887 5885 5884 5882 5880 5879 5877 5876 5874 5872 5871 5869 5868 5866 5864 5862 5861 5859 5858 5857
5908 5907 5907 5907 5906 5905 5904 5904 5903 5902 5902 5901 5900 5899 5898 5897 5896 5895 5893 5892 5891 5889 5887 5886 5884 5882 5880 5878 5877 5875 5874 5872 5870 5868 5866 5865 5863 5861 5859 5857 5856 5854 5853
5908 5907 5906 5905 5905 5904 5903 5902 5902 5901 5901 5900 5899 5898 5897 5896 5895 5894 5892 5891 5889 5888 5886 5885 5883 5881 5878 5876 5875 5873 5871 5869 5867 5865 5863 5862 5860 5858 5856 5854 5852 5851 5849
5907 5906 5904 5903 5903 5903 5902 5901 5900 5900 5899 5899 5898 5897 5896 5895 5894 5893 5891 5889 5888 5886 5885 5883 5881 5879 5876 5874 5872 5871 5868 5866 5864 5862 5860 5858 5856 5854 5852 5850 5848 5846 5844
5905 5904 5902 5901 5901 5901 5900 5900 5899 5898 5898 5897 5896 5895 5895 5893 5892 5891 5889 5888 5886 5884 5882 5880 5878 5876 5874 5872 5870 5868 5865 5863 5861 5859 5857 5855 5852 5850 5849 5846 5844 5842 5840
5903 5902 5900 5899 5899 5899 5898 5897 5896 5896 5895 5894 5894 5893 5892 5891 5890 5888 5887 5885 5884 5882 5880 5878 5876 5874 5871 5869 5867 5864 5862 5860 5858 5855 5853 5851 5849 5846 5844 5842 5840 5837 5834
5900 5899 5898 5897 5897 5896 5896 5895 5894 5893 5892 5891 5890 5890 5889 5888 5887 5885 5884 5883 5881 5879 5877 5875 5873 5870 5868 5866 5863 5861 5858 5856 5854 5851 5849 5847 5845 5842 5840 5837 5835 5832 5829
5897 5897 5896 5895 5895 5894 5893 5892 5891 5889 5888 5887 5887 5886 5885 5884 5883 5882 5880 5879 5877 5875 5873 5871 5869 5867 5864 5862 5860 5857 5855 5852 5849 5847 5845 5842 5840 5837 5835 5832 5830 5827 5824
5893 5893 5892 5892 5891 5890 5889 5888 5887 5886 5884 5884 5883 5882 5881 5880 5879 5878 5876 5874 5873 5871 5869 5867 5865 5862 5860 5858 5855 5853 5850 5848 5845 5843 5840 5837 5835 5832 5830 5827 5824 5821 5818
5889 5889 5888 5887 5887 5886 5885 5884 5883 5882 5880 5879 5878 5877 5876 5875 5874 5872 5871 5869 5867 5865 5863 5861 5859 5857 5855 5853 5850 5848 5845 5843 5840 5838 5835 5832 5830 5827 5824 5821 5818 5815 5812
5885 5884 5883 5882 5882 5881 5880 5879 5878 5877 5876 5875 5873 5872 5871 5869 5868 5867 5865 5864 5862 5860 5858 5856 5854 5852 5850 5847 5845 5842 5840 5837 5835 5832 5829 5827 5824 5821 5818 5815 5812 5809 5806
5879 5878 5878 5877 5876 5875 5874 5873 5872 5871 5870 5869 5868 5866 5865 5863 5862 5861 5860 5858 5856 5854 5852 5850 5848 5846 5843 5841 5839 5836 5833 5831 5828 5826 5823 5821 5818 5815 5812 5809 5806 5803 5800
5872 5872 5871 5870 5869 5868 5868 5867 5866 5865 5864 5863 5861 5860 5859 5857 5856 5855 5853 5851 5849 5847 5845 5843 5841 5839 5837 5834 5832 5829 5827 5824 5822 5819 5816 5814 5811 5808 5805 5802 5799 5797 5794
5866 5865 5864 5863 5863 5861 5860 5860 5859 5858 5857 5856 5855 5854 5852 5851 5850 5848 5846 5844 5842 5840 5838 5836 5834 5832 5830 5827 5824 5821 5819 5817 5815 5812 5809 5806 5803 5801 5798 5795 5792 5790 5787
5858 5857 5856 5856 5855 5854 5853 5852 5851 5850 5849 5848 5847 5846 5845 5843 5842 5840 5838 5837 5835 5833 5831 5829 5826 5824 5822 5820 5817 5814 5811 5809 5807 5804 5802 5799 5796 5793 5790 5787 5785 5782 5779
5850 5849 5849 5848 5847 5846 5845 5844 5843 5842 5841 5840 5839 5838 5836 5835 5834 5832 5830 5828 5826 5824 5822 5820 5818 5816 5814 5812 5809 5806 5804 5801 5799 5796 5794 5791 5788 5785 5783 5780 5777 5775 5772
5842 5841 5840 5840 5839 5838 5837 5836 5835 5834 5833 5832 5830 5829 5828 5826 5825 5823 5822 5820 5818 5816 5813 5811 5810 5808 5806 5803 5801 5799 5796 5793 5791 5788 5786 5783 5780 5777 5775 5773 5770 5767 5765
5834 5833 5832 5831 5830 5829 5828 5827 5825 5824 5823 5822 5821 5820 5819 5817 5816 5814 5813 5811 5809 5807 5805 5802 5800 5799 5797 5795 5793 5791 5788 5785 5783 5780 5778 5775 5772 5770 5767 5765 5763 5760 5757
5825 5824 5823 5822 5821 5820 5819 5817 5816 5815 5814 5813 5812 5811 5809 5808 5807 5805 5803 5802 5800 5798 5796 5793 5791 5790 5788 5786 5784 5782 5780 5777 5775 5772 5770 5767 5765 5762 5760 5757 5755 5753 5751
5816 5815 5814 5813 5812 5810 5809 5808 5807 5805 5804 5803 5802 5801 5800 5798 5797 5795 5794 5792 5790 5788 5787 5785 5782 5781 5779 5777 5775 5773 5770 5768 5766 5764 5761 5759 5757 5754 5752 5750 5747 5745 5743